Regional Weather Roundup
Issued by NWS State College, PA

Home | Current Version | Previous Version | Graphics & Text | Print | Product List | Glossary Off
Versions: 1 2 3 4 5 6 7 8 9 10 11 12 13 14 15 16 17 18 19 20 21 22 23 24 25 26 27 28 29 30 31 32 33 34 35 36 37 38 39 40 41 42 43 44 45 46 47 48 49 50

935
ASUS41 KCTP 050010
RWRCTP

REGIONAL WEATHER ROUNDUP
NATIONAL WEATHER SERVICE STATE COLLEGE PA
800 PM EDT WED MAY 04 2016

Note: "fair" indicates few or no clouds below 12,000 feet with no
significant weather and/or obstructions to visibility.

* = STATION THAT DOES NOT REPORT PRECIPITATION /E.G. RAIN...SNOW...ETC/
    THUNDER OR FOG.

PAZ002>004-007>009-013>016-020>023-029>032-050100-
WESTERN PENNSYLVANIA

CITY           SKY/WX    TMP DP  RH WIND       PRES   REMARKS
ERIE           MOCLDY    58  41  53 NE12      29.64R
MEADVILLE      CLOUDY    56  38  50 W5        29.63R
FRANKLIN*      CLOUDY    57  36  44 S3        29.65R
NEW CASTLE     CLOUDY    55  45  68 SW13G20   29.66R
BEAVER COUNTY  CLOUDY    52  45  76 W9        29.66R
BUTLER*        MOCLDY    54  45  71 S5        29.68R
PITTSBURGH INT MOCLDY    55  45  68 S8        29.64R
PITTSBURGH     MOCLDY    52  48  86 S3        29.64R
INDIANA*       CLOUDY    54  50  87 SW7       29.69R
LATROBE        MOCLDY    54  48  82 SW6       29.66S
WASHINGTON CO* CLOUDY    54  46  76 SW7       29.67R
$$

PAZ004>006-010>012-017>019-024>028-033>037-041-042-045-046-049>053-050100-
CENTRAL PENNSYLVANIA

CITY           SKY/WX    TMP DP  RH WIND       PRES   REMARKS
BRADFORD       PTCLDY    52  42  69 E6        29.66R
DUBOIS         MOCLDY    56  42  59 SE6       29.64R
CLEARFIELD     MOCLDY    53  45  74 E7        29.67R
JOHNSTOWN      CLOUDY    53  42  66 W5        29.65R
ALTOONA        CLOUDY    53  47  79 NE6       29.66R
STATE COLLEGE  PTCLDY    52  50  93 NE3       29.67S
WILLIAMSPORT   CLOUDY    55  48  77 E12       29.69R
SELINSGROVE    CLOUDY    55  49  80 SE10      29.70R
FT INDIANTOWN  CLOUDY    52  51  96 E8        29.71R
CAPITAL CITY   CLOUDY    54  49  83 E7        29.71R HAZE
HARRISBURG     CLOUDY    53  49  86 E9        29.70R
YORK           CLOUDY    53  50  89 E8        29.69R
$$

PAZ038>040-043-044-047-048-054-055-060>062-067>071-050100-
EASTERN PENNSYLVANIA

CITY           SKY/WX    TMP DP  RH WIND       PRES   REMARKS
SCRANTON       CLOUDY    50  45  83 E3        29.72R
MOUNT POCONO   CLOUDY    42  42 100 E9        29.72R FOG
ALLENTOWN      CLOUDY    51  44  77 E5        29.73R
QUAKERTOWN*    CLOUDY    48  46  93 E5        29.73R
READING        LGT RAIN  50  48  93 E5        29.72R FOG
LANCASTER      CLOUDY    51  48  89 E8        29.71R
COATESVILLE    RAIN      50  50 100 MISG      29.73R VSB 3/4
POTTSTOWN      CLOUDY    49  47  93 NE5       29.74R
BLUE BELL      CLOUDY    46  46 100 NE7       29.72R
DOYLESTOWN     CLOUDY    48  45  89 CALM      29.72R
WILLOW GROVE   NOT AVBL
NORTH PHILA    CLOUDY    51  48  89 E8        29.74R
PHILADELPHIA   CLOUDY    52  46  80 NE10G21   29.73R
$$




USA.gov is the U.S. government's official web portal to all federal, state and local government web resources and services.